QPF
0.00 0.00 0.00 0.00 0.01 0.00 0.00 0.00 0.01 0.01 0.02 0.02 0.02 0.01 0.02 0.02 0.02 0.02 0.03 0.05 0.05 0.05 0.06 0.04 0.03 0.02 0.03 0.02 0.02 0.02 0.02 0.01 0.01 0.01 0.01 0.01 0.00 0.00 0.01 0.00 0.00 0.00 0.00
0.01 0.01 0.01 0.01 0.01 0.01 0.01 0.00 0.01 0.01 0.02 0.02 0.02 0.02 0.02 0.02 0.02 0.02 0.02 0.03 0.05 0.05 0.04 0.06 0.08 0.06 0.05 0.05 0.04 0.04 0.03 0.04 0.04 0.02 0.02 0.02 0.01 0.00 0.00 0.00 0.00 0.00 0.00
0.01 0.02 0.02 0.01 0.01 0.01 0.01 0.00 0.01 0.01 0.02 0.03 0.03 0.04 0.03 0.02 0.02 0.02 0.02 0.03 0.03 0.05 0.05 0.06 0.07 0.07 0.07 0.07 0.07 0.08 0.08 0.07 0.04 0.02 0.02 0.02 0.02 0.01 0.01 0.01 0.01 0.00 0.00
0.03 0.03 0.02 0.01 0.01 0.01 0.01 0.01 0.01 0.01 0.01 0.02 0.02 0.04 0.03 0.02 0.02 0.02 0.02 0.02 0.02 0.03 0.04 0.06 0.07 0.06 0.06 0.07 0.08 0.11 0.11 0.08 0.05 0.03 0.02 0.02 0.02 0.01 0.01 0.02 0.02 0.01 0.00
0.05 0.04 0.02 0.01 0.02 0.01 0.01 0.01 0.01 0.01 0.01 0.01 0.01 0.01 0.02 0.03 0.03 0.02 0.02 0.02 0.02 0.02 0.03 0.04 0.06 0.05 0.05 0.06 0.08 0.10 0.10 0.09 0.07 0.06 0.05 0.04 0.03 0.02 0.02 0.02 0.01 0.01 0.01
0.05 0.04 0.03 0.03 0.02 0.01 0.02 0.02 0.02 0.01 0.01 0.01 0.02 0.02 0.02 0.02 0.02 0.02 0.02 0.02 0.02 0.02 0.02 0.03 0.03 0.03 0.05 0.06 0.08 0.07 0.07 0.08 0.08 0.06 0.06 0.06 0.06 0.05 0.03 0.03 0.02 0.02 0.02
0.05 0.05 0.04 0.03 0.02 0.01 0.02 0.02 0.02 0.02 0.01 0.01 0.02 0.02 0.02 0.01 0.01 0.01 0.02 0.02 0.01 0.01 0.02 0.02 0.01 0.01 0.02 0.04 0.04 0.05 0.07 0.07 0.07 0.06 0.06 0.06 0.06 0.06 0.05 0.05 0.04 0.04 0.04
0.04 0.04 0.04 0.02 0.02 0.03 0.04 0.03 0.02 0.02 0.02 0.01 0.01 0.01 0.01 0.01 0.01 0.01 0.01 0.01 0.01 0.01 0.02 0.01 0.01 0.01 0.01 0.01 0.01 0.03 0.05 0.06 0.06 0.07 0.06 0.04 0.04 0.04 0.04 0.05 0.05 0.05 0.05
0.05 0.04 0.04 0.03 0.02 0.03 0.02 0.01 0.01 0.01 0.01 0.01 0.01 0.00 0.00 0.00 0.00 0.00 0.00 0.01 0.01 0.01 0.01 0.02 0.02 0.01 0.01 0.01 0.01 0.01 0.03 0.04 0.05 0.06 0.06 0.06 0.05 0.03 0.03 0.04 0.05 0.05 0.04
0.05 0.04 0.05 0.03 0.02 0.02 0.01 0.01 0.02 0.01 0.01 0.01 0.00 0.00 0.00 0.00 0.00 0.00 0.00 0.00 0.00 0.00 0.00 0.00 0.00 0.00 0.01 0.01 0.01 0.01 0.01 0.02 0.04 0.05 0.06 0.08 0.08 0.05 0.03 0.03 0.04 0.05 0.04
0.06 0.05 0.05 0.04 0.02 0.02 0.01 0.02 0.02 0.02 0.02 0.01 0.01 0.00 0.00 0.00 0.00 0.00 0.00 0.00 0.00 0.00 0.00 0.00 0.00 0.00 0.00 0.00 0.01 0.01 0.01 0.01 0.01 0.02 0.03 0.04 0.05 0.04 0.03 0.03 0.03 0.05 0.06
0.07 0.07 0.05 0.04 0.03 0.02 0.01 0.02 0.03 0.03 0.03 0.02 0.01 0.01 0.00 0.00 0.00 0.00 0.00 0.00 0.00 0.00 0.00 0.00 0.00 0.00 0.00 0.00 0.00 0.00 0.01 0.00 0.00 0.01 0.01 0.01 0.02 0.02 0.02 0.02 0.04 0.05 0.06
0.06 0.05 0.04 0.04 0.03 0.02 0.01 0.02 0.03 0.02 0.02 0.03 0.02 0.01 0.00 0.00 0.00 0.00 0.00 0.00 0.00 0.00 0.00 0.00 0.00 0.00 0.00 0.00 0.00 0.00 0.00 0.01 0.01 0.01 0.01 0.01 0.01 0.01 0.02 0.02 0.03 0.03 0.03
0.05 0.06 0.06 0.04 0.04 0.03 0.02 0.02 0.03 0.02 0.02 0.02 0.02 0.01 0.00 0.00 0.00 0.00 0.00 0.00 0.00 0.00 0.00 0.00 0.00 0.00 0.00 0.00 0.00 0.00 0.00 0.00 0.00 0.00 0.00 0.01 0.01 0.01 0.01 0.01 0.01 0.01 0.01
0.07 0.07 0.06 0.05 0.03 0.04 0.02 0.02 0.02 0.02 0.01 0.01 0.01 0.01 0.00 0.00 0.00 0.00 0.00 0.00 0.00 0.00 0.00 0.00 0.00 0.00 0.00 0.00 0.00 0.00 0.00 0.00 0.00 0.00 0.00 0.00 0.01 0.01 0.01 0.01 0.01 0.01 0.00
0.06 0.06 0.05 0.04 0.04 0.05 0.04 0.03 0.03 0.02 0.02 0.01 0.01 0.01 0.01 0.01 0.01 0.01 0.01 0.01 0.00 0.00 0.00 0.00 0.00 0.00 0.00 0.00 0.00 0.00 0.00 0.00 0.00 0.00 0.00 0.00 0.00 0.00 0.00 0.00 0.00 0.00 0.00
0.06 0.06 0.05 0.04 0.03 0.03 0.04 0.04 0.03 0.03 0.02 0.02 0.02 0.01 0.01 0.01 0.01 0.01 0.01 0.00 0.00 0.00 0.00 0.00 0.00 0.00 0.00 0.00 0.00 0.00 0.00 0.00 0.00 0.00 0.00 0.00 0.00 0.00 0.00 0.00 0.01 0.01 0.01
0.05 0.06 0.04 0.03 0.03 0.03 0.03 0.04 0.04 0.03 0.03 0.02 0.01 0.01 0.01 0.01 0.01 0.01 0.01 0.00 0.00 0.00 0.00 0.00 0.00 0.00 0.00 0.00 0.00 0.00 0.00 0.00 0.00 0.00 0.00 0.00 0.00 0.00 0.00 0.00 0.01 0.01 0.01
0.06 0.06 0.06 0.05 0.04 0.04 0.04 0.04 0.04 0.03 0.03 0.02 0.01 0.01 0.01 0.00 0.01 0.00 0.00 0.00 0.00 0.01 0.00 0.00 0.00 0.00 0.00 0.00 0.00 0.00 0.00 0.00 0.00 0.00 0.00 0.00 0.00 0.00 0.01 0.01 0.01 0.01 0.01
0.08 0.08 0.07 0.06 0.05 0.06 0.05 0.04 0.04 0.03 0.03 0.02 0.02 0.01 0.01 0.01 0.01 0.01 0.01 0.01 0.01 0.01 0.01 0.00 0.00 0.00 0.00 0.00 0.00 0.00 0.00 0.00 0.00 0.00 0.00 0.00 0.01 0.01 0.01 0.01 0.01 0.01 0.01
0.13 0.11 0.11 0.08 0.08 0.07 0.07 0.06 0.05 0.03 0.03 0.03 0.02 0.02 0.02 0.02 0.01 0.01 0.01 0.01 0.01 0.01 0.01 0.01 0.01 0.00 0.00 0.00 0.00 0.00 0.00 0.00 0.00 0.00 0.00 0.00 0.01 0.01 0.01 0.01 0.01 0.01 0.01
0.12 0.12 0.13 0.12 0.10 0.10 0.10 0.09 0.07 0.06 0.05 0.04 0.03 0.03 0.03 0.02 0.02 0.02 0.02 0.01 0.01 0.01 0.00 0.00 0.00 0.00 0.00 0.00 0.00 0.00 0.00 0.00 0.00 0.00 0.00 0.01 0.01 0.00 0.01 0.00 0.00 0.01 0.01
0.09 0.08 0.09 0.09 0.09 0.09 0.09 0.09 0.09 0.08 0.07 0.06 0.05 0.05 0.04 0.03 0.02 0.01 0.01 0.01 0.01 0.01 0.00 0.00 0.00 0.00 0.00 0.00 0.00 0.00 0.00 0.00 0.00 0.00 0.00 0.00 0.00 0.00 0.00 0.00 0.00 0.00 0.00
0.13 0.11 0.08 0.08 0.08 0.08 0.09 0.08 0.09 0.08 0.08 0.07 0.07 0.06 0.05 0.04 0.03 0.02 0.01 0.01 0.00 0.00 0.00 0.00 0.00 0.00 0.00 0.00 0.00 0.00 0.00 0.00 0.00 0.00 0.00 0.00 0.00 0.00 0.00 0.00 0.00 0.00 0.01
0.13 0.10 0.09 0.07 0.08 0.09 0.10 0.09 0.09 0.07 0.06 0.06 0.05 0.04 0.03 0.02 0.02 0.01 0.01 0.01 0.01 0.01 0.00 0.00 0.00 0.00 0.00 0.00 0.00 0.00 0.00 0.00 0.00 0.00 0.00 0.00 0.00 0.00 0.00 0.00 0.00 0.00 0.00
0.13 0.10 0.08 0.07 0.07 0.08 0.09 0.08 0.06 0.05 0.04 0.04 0.03 0.03 0.03 0.03 0.03 0.03 0.03 0.03 0.02 0.02 0.01 0.01 0.01 0.01 0.01 0.00 0.00 0.00 0.00 0.00 0.00 0.00 0.00 0.00 0.00 0.00 0.00 0.00 0.00 0.00 0.00
MSLP
1017.42 1017.61 1017.73 1017.81 1017.87 1017.93 1018.02 1018.14 1018.30 1018.48 1018.67 1018.86 1019.04 1019.21 1019.38 1019.55 1019.73 1019.92 1020.13 1020.34 1020.55 1020.75 1020.94 1021.11 1021.28 1021.43 1021.58 1021.74 1021.89 1022.04 1022.19 1022.34 1022.48 1022.61 1022.75 1022.89 1023.04 1023.18 1023.32 1023.44 1023.53 1023.61 1023.66
1017.42 1017.63 1017.78 1017.90 1017.99 1018.08 1018.18 1018.31 1018.48 1018.66 1018.86 1019.07 1019.26 1019.45 1019.62 1019.77 1019.93 1020.08 1020.24 1020.40 1020.57 1020.75 1020.93 1021.12 1021.31 1021.49 1021.67 1021.84 1021.99 1022.13 1022.25 1022.36 1022.48 1022.59 1022.71 1022.84 1022.99 1023.13 1023.28 1023.40 1023.50 1023.58 1023.64
1017.28 1017.52 1017.73 1017.91 1018.06 1018.21 1018.36 1018.52 1018.70 1018.91 1019.12 1019.34 1019.55 1019.74 1019.90 1020.04 1020.15 1020.25 1020.35 1020.46 1020.57 1020.72 1020.88 1021.07 1021.27 1021.48 1021.69 1021.87 1022.03 1022.16 1022.26 1022.35 1022.42 1022.51 1022.60 1022.72 1022.85 1022.99 1023.13 1023.26 1023.37 1023.47 1023.54
1017.03 1017.32 1017.60 1017.85 1018.09 1018.31 1018.52 1018.73 1018.94 1019.16 1019.39 1019.61 1019.83 1020.02 1020.18 1020.30 1020.38 1020.43 1020.46 1020.50 1020.56 1020.65 1020.79 1020.96 1021.17 1021.40 1021.62 1021.82 1021.99 1022.11 1022.20 1022.26 1022.31 1022.36 1022.43 1022.52 1022.63 1022.75 1022.89 1023.02 1023.14 1023.25 1023.35
1016.73 1017.06 1017.40 1017.74 1018.06 1018.36 1018.63 1018.88 1019.12 1019.36 1019.59 1019.83 1020.05 1020.24 1020.40 1020.51 1020.57 1020.58 1020.57 1020.55 1020.55 1020.59 1020.68 1020.83 1021.02 1021.24 1021.47 1021.68 1021.86 1021.98 1022.06 1022.11 1022.13 1022.15 1022.19 1022.25 1022.33 1022.44 1022.56 1022.68 1022.81 1022.93 1023.04
1016.43 1016.78 1017.17 1017.58 1017.98 1018.34 1018.66 1018.95 1019.21 1019.45 1019.69 1019.93 1020.16 1020.37 1020.54 1020.65 1020.71 1020.71 1020.66 1020.60 1020.55 1020.54 1020.58 1020.68 1020.85 1021.05 1021.27 1021.47 1021.64 1021.77 1021.84 1021.88 1021.89 1021.89 1021.91 1021.94 1022.00 1022.09 1022.19 1022.30 1022.42 1022.54 1022.66
1016.16 1016.52 1016.94 1017.39 1017.84 1018.24 1018.60 1018.91 1019.17 1019.42 1019.66 1019.91 1020.15 1020.39 1020.58 1020.73 1020.81 1020.82 1020.77 1020.68 1020.59 1020.53 1020.52 1020.57 1020.68 1020.84 1021.03 1021.21 1021.36 1021.48 1021.55 1021.59 1021.60 1021.60 1021.60 1021.63 1021.67 1021.74 1021.82 1021.91 1022.01 1022.12 1022.23
1015.96 1016.30 1016.73 1017.20 1017.66 1018.08 1018.45 1018.76 1019.03 1019.27 1019.52 1019.77 1020.05 1020.32 1020.56 1020.75 1020.88 1020.92 1020.88 1020.79 1020.68 1020.57 1020.51 1020.49 1020.54 1020.64 1020.77 1020.91 1021.04 1021.14 1021.21 1021.26 1021.28 1021.29 1021.31 1021.34 1021.38 1021.43 1021.50 1021.57 1021.64 1021.72 1021.81
1015.81 1016.13 1016.54 1017.00 1017.46 1017.88 1018.24 1018.54 1018.80 1019.05 1019.30 1019.58 1019.88 1020.20 1020.49 1020.75 1020.93 1021.02 1021.01 1020.93 1020.81 1020.67 1020.54 1020.46 1020.44 1020.46 1020.52 1020.60 1020.69 1020.77 1020.84 1020.89 1020.94 1020.98 1021.02 1021.07 1021.13 1021.19 1021.24 1021.29 1021.34 1021.39 1021.44
1015.68 1015.98 1016.38 1016.82 1017.26 1017.66 1018.01 1018.30 1018.56 1018.80 1019.07 1019.37 1019.70 1020.06 1020.42 1020.73 1020.96 1021.10 1021.13 1021.07 1020.95 1020.78 1020.61 1020.46 1020.36 1020.30 1020.29 1020.30 1020.34 1020.39 1020.45 1020.51 1020.58 1020.66 1020.74 1020.83 1020.91 1020.99 1021.04 1021.08 1021.10 1021.12 1021.14
1015.52 1015.84 1016.22 1016.65 1017.08 1017.46 1017.80 1018.08 1018.33 1018.58 1018.86 1019.18 1019.55 1019.94 1020.34 1020.69 1020.98 1021.15 1021.22 1021.18 1021.05 1020.87 1020.67 1020.47 1020.30 1020.17 1020.08 1020.02 1020.00 1020.01 1020.05 1020.12 1020.21 1020.32 1020.45 1020.58 1020.70 1020.80 1020.87 1020.90 1020.91 1020.90 1020.89
1015.32 1015.66 1016.06 1016.49 1016.92 1017.29 1017.62 1017.91 1018.16 1018.42 1018.71 1019.04 1019.43 1019.84 1020.25 1020.63 1020.94 1021.14 1021.23 1021.20 1021.09 1020.91 1020.69 1020.47 1020.25 1020.06 1019.90 1019.78 1019.70 1019.67 1019.67 1019.72 1019.82 1019.96 1020.12 1020.28 1020.44 1020.57 1020.66 1020.70 1020.70 1020.68 1020.65
1015.04 1015.44 1015.89 1016.34 1016.78 1017.16 1017.50 1017.78 1018.05 1018.32 1018.61 1018.95 1019.34 1019.75 1020.16 1020.53 1020.83 1021.04 1021.14 1021.14 1021.04 1020.88 1020.67 1020.44 1020.20 1019.98 1019.77 1019.60 1019.46 1019.36 1019.33 1019.35 1019.43 1019.56 1019.73 1019.92 1020.11 1020.26 1020.37 1020.43 1020.44 1020.42 1020.37
1014.68 1015.19 1015.70 1016.20 1016.66 1017.06 1017.41 1017.71 1017.99 1018.26 1018.56 1018.90 1019.27 1019.66 1020.04 1020.39 1020.67 1020.86 1020.96 1020.98 1020.91 1020.78 1020.60 1020.39 1020.17 1019.94 1019.71 1019.49 1019.30 1019.14 1019.04 1019.01 1019.05 1019.15 1019.31 1019.49 1019.68 1019.85 1019.99 1020.06 1020.09 1020.07 1020.04
1014.30 1014.91 1015.51 1016.06 1016.56 1016.99 1017.35 1017.67 1017.96 1018.25 1018.55 1018.88 1019.22 1019.58 1019.92 1020.22 1020.47 1020.64 1020.74 1020.77 1020.74 1020.65 1020.52 1020.37 1020.18 1019.97 1019.73 1019.49 1019.25 1019.03 1018.86 1018.75 1018.71 1018.76 1018.87 1019.02 1019.20 1019.37 1019.50 1019.60 1019.64 1019.64 1019.63
1013.93 1014.65 1015.33 1015.95 1016.48 1016.94 1017.32 1017.65 1017.96 1018.26 1018.56 1018.88 1019.21 1019.53 1019.83 1020.08 1020.29 1020.44 1020.53 1020.57 1020.58 1020.55 1020.48 1020.39 1020.26 1020.08 1019.87 1019.61 1019.33 1019.05 1018.80 1018.60 1018.47 1018.43 1018.47 1018.56 1018.70 1018.85 1018.98 1019.08 1019.14 1019.16 1019.16
1013.64 1014.46 1015.21 1015.87 1016.43 1016.91 1017.31 1017.66 1017.98 1018.29 1018.61 1018.93 1019.25 1019.55 1019.81 1020.03 1020.20 1020.32 1020.41 1020.46 1020.50 1020.52 1020.53 1020.50 1020.43 1020.31 1020.11 1019.85 1019.55 1019.21 1018.88 1018.59 1018.36 1018.22 1018.17 1018.19 1018.26 1018.37 1018.48 1018.57 1018.63 1018.67 1018.68
1013.48 1014.37 1015.17 1015.85 1016.43 1016.91 1017.32 1017.69 1018.03 1018.37 1018.71 1019.05 1019.37 1019.66 1019.91 1020.11 1020.26 1020.36 1020.43 1020.50 1020.56 1020.62 1020.68 1020.71 1020.70 1020.62 1020.45 1020.20 1019.88 1019.50 1019.11 1018.73 1018.41 1018.17 1018.02 1017.95 1017.96 1018.01 1018.08 1018.15 1018.20 1018.23 1018.25
1013.48 1014.41 1015.23 1015.91 1016.49 1016.97 1017.38 1017.76 1018.13 1018.51 1018.88 1019.26 1019.60 1019.91 1020.16 1020.35 1020.48 1020.57 1020.63 1020.69 1020.76 1020.84 1020.93 1021.00 1021.03 1020.99 1020.85 1020.62 1020.29 1019.89 1019.45 1019.01 1018.61 1018.29 1018.05 1017.90 1017.82 1017.81 1017.83 1017.86 1017.89 1017.90 1017.90
1013.67 1014.60 1015.40 1016.07 1016.62 1017.09 1017.50 1017.90 1018.30 1018.72 1019.14 1019.56 1019.96 1020.29 1020.56 1020.76 1020.88 1020.95 1021.00 1021.04 1021.10 1021.18 1021.27 1021.36 1021.41 1021.39 1021.28 1021.06 1020.74 1020.33 1019.88 1019.40 1018.95 1018.56 1018.25 1018.02 1017.87 1017.79 1017.75 1017.73 1017.72 1017.69 1017.66
1014.04 1014.94 1015.69 1016.32 1016.84 1017.29 1017.71 1018.12 1018.55 1019.01 1019.49 1019.97 1020.41 1020.79 1021.09 1021.30 1021.42 1021.48 1021.50 1021.51 1021.54 1021.59 1021.66 1021.74 1021.79 1021.78 1021.69 1021.49 1021.19 1020.80 1020.34 1019.86 1019.38 1018.95 1018.58 1018.29 1018.08 1017.92 1017.82 1017.74 1017.67 1017.60 1017.53
1014.58 1015.41 1016.12 1016.70 1017.18 1017.61 1018.02 1018.44 1018.90 1019.40 1019.93 1020.46 1020.95 1021.37 1021.69 1021.92 1022.04 1022.08 1022.07 1022.05 1022.03 1022.04 1022.08 1022.13 1022.17 1022.16 1022.08 1021.90 1021.62 1021.26 1020.82 1020.35 1019.87 1019.41 1019.01 1018.67 1018.40 1018.18 1018.00 1017.86 1017.73 1017.60 1017.48
1015.27 1016.03 1016.67 1017.20 1017.65 1018.06 1018.46 1018.89 1019.36 1019.89 1020.45 1021.01 1021.53 1021.98 1022.33 1022.56 1022.68 1022.71 1022.67 1022.61 1022.56 1022.52 1022.52 1022.53 1022.54 1022.52 1022.44 1022.28 1022.04 1021.70 1021.29 1020.84 1020.37 1019.91 1019.48 1019.10 1018.77 1018.48 1018.24 1018.03 1017.84 1017.65 1017.47
1016.08 1016.78 1017.37 1017.85 1018.27 1018.65 1019.04 1019.46 1019.94 1020.47 1021.04 1021.61 1022.14 1022.60 1022.95 1023.19 1023.30 1023.32 1023.27 1023.18 1023.09 1023.02 1022.97 1022.95 1022.93 1022.90 1022.82 1022.67 1022.44 1022.13 1021.75 1021.32 1020.85 1020.39 1019.94 1019.52 1019.14 1018.80 1018.50 1018.22 1017.96 1017.72 1017.48
1016.99 1017.64 1018.19 1018.64 1019.03 1019.39 1019.75 1020.16 1020.62 1021.14 1021.69 1022.24 1022.76 1023.20 1023.55 1023.78 1023.89 1023.90 1023.84 1023.74 1023.64 1023.54 1023.47 1023.42 1023.38 1023.32 1023.23 1023.08 1022.86 1022.56 1022.20 1021.77 1021.31 1020.84 1020.37 1019.92 1019.49 1019.10 1018.74 1018.40 1018.08 1017.79 1017.50
1017.98 1018.60 1019.12 1019.55 1019.91 1020.25 1020.60 1020.97 1021.40 1021.87 1022.38 1022.89 1023.37 1023.79 1024.12 1024.33 1024.44 1024.46 1024.41 1024.32 1024.21 1024.11 1024.03 1023.96 1023.90 1023.82 1023.71 1023.55 1023.31 1023.01 1022.64 1022.21 1021.74 1021.25 1020.76 1020.27 1019.81 1019.37 1018.95 1018.56 1018.20 1017.86 1017.53
Thickness
5731 5731 5730 5729 5729 5729 5728 5727 5726 5726 5725 5725 5724 5723 5722 5721 5720 5718 5717 5716 5715 5713 5712 5711 5709 5708 5707 5706 5705 5705 5704 5703 5702 5701 5700 5699 5699 5698 5697 5697 5696 5696 5695
5730 5729 5728 5728 5728 5728 5727 5726 5726 5725 5724 5724 5723 5722 5721 5720 5719 5718 5717 5715 5714 5713 5712 5710 5709 5707 5706 5705 5704 5704 5703 5702 5701 5700 5699 5698 5697 5696 5696 5695 5695 5694 5694
5729 5728 5727 5727 5726 5726 5726 5725 5724 5724 5723 5722 5722 5721 5721 5720 5719 5718 5716 5715 5714 5713 5711 5710 5709 5707 5706 5705 5704 5703 5702 5701 5700 5699 5698 5697 5696 5695 5694 5694 5693 5693 5692
5727 5727 5726 5726 5726 5725 5725 5724 5723 5722 5721 5721 5720 5720 5720 5719 5719 5718 5716 5715 5714 5713 5711 5710 5709 5707 5706 5705 5704 5703 5701 5700 5699 5698 5697 5696 5695 5694 5693 5692 5692 5691 5691
5726 5726 5725 5725 5725 5724 5723 5723 5722 5721 5719 5719 5719 5718 5718 5718 5718 5717 5716 5715 5714 5713 5712 5711 5709 5708 5706 5706 5705 5703 5702 5700 5699 5698 5697 5696 5695 5694 5693 5691 5691 5690 5690
5724 5725 5724 5724 5724 5723 5722 5722 5720 5720 5718 5718 5718 5716 5716 5717 5717 5716 5716 5715 5714 5714 5713 5711 5710 5709 5708 5707 5705 5704 5703 5701 5700 5698 5697 5696 5695 5694 5693 5692 5691 5690 5689
5723 5723 5723 5723 5723 5722 5721 5721 5719 5718 5716 5716 5714 5712 5713 5715 5716 5716 5716 5716 5715 5715 5714 5713 5712 5711 5709 5708 5707 5706 5704 5703 5701 5700 5698 5697 5696 5695 5694 5693 5691 5690 5689
5722 5722 5722 5722 5722 5721 5720 5719 5719 5716 5715 5714 5712 5708 5705 5708 5712 5715 5716 5716 5716 5716 5715 5715 5714 5712 5711 5710 5709 5707 5706 5704 5703 5701 5700 5699 5697 5696 5695 5693 5692 5691 5690
5721 5722 5721 5721 5721 5721 5719 5719 5718 5717 5713 5712 5713 5710 5703 5701 5706 5711 5714 5715 5715 5715 5715 5715 5714 5714 5712 5711 5710 5709 5708 5706 5704 5703 5701 5700 5698 5697 5696 5694 5693 5692 5691
5720 5720 5720 5720 5720 5720 5719 5719 5718 5718 5716 5712 5711 5712 5711 5709 5705 5705 5710 5713 5714 5715 5715 5715 5714 5714 5713 5712 5711 5710 5709 5707 5706 5704 5703 5701 5700 5698 5697 5695 5694 5693 5692
5719 5720 5720 5720 5719 5719 5719 5718 5717 5717 5716 5714 5712 5711 5709 5708 5707 5705 5704 5708 5711 5713 5714 5714 5714 5714 5713 5713 5712 5711 5710 5708 5707 5705 5704 5702 5701 5699 5698 5696 5695 5694 5693
5717 5718 5718 5718 5718 5718 5717 5717 5717 5716 5715 5714 5713 5712 5710 5708 5706 5705 5703 5703 5705 5709 5711 5712 5713 5713 5713 5712 5711 5711 5709 5708 5706 5705 5704 5702 5701 5699 5698 5696 5695 5694 5693
5714 5716 5717 5717 5717 5717 5716 5716 5715 5714 5714 5713 5712 5711 5711 5710 5709 5706 5703 5701 5701 5704 5706 5710 5711 5711 5711 5710 5710 5709 5708 5707 5705 5704 5702 5701 5700 5698 5697 5695 5694 5693 5692
5715 5715 5715 5715 5715 5715 5715 5714 5713 5712 5712 5711 5711 5710 5709 5709 5708 5707 5704 5700 5697 5698 5700 5704 5707 5707 5707 5707 5707 5706 5705 5704 5703 5702 5700 5698 5697 5696 5694 5693 5692 5691 5690
5714 5713 5713 5713 5713 5713 5713 5712 5711 5710 5709 5708 5708 5707 5706 5706 5705 5704 5703 5701 5697 5692 5693 5697 5700 5703 5703 5703 5703 5702 5701 5701 5699 5698 5696 5695 5693 5692 5690 5689 5688 5687 5686
5713 5711 5711 5711 5711 5710 5710 5709 5708 5707 5706 5704 5704 5703 5702 5702 5701 5700 5699 5698 5696 5693 5689 5692 5694 5695 5696 5697 5697 5697 5696 5695 5694 5692 5691 5689 5688 5687 5685 5684 5682 5682 5681
5711 5710 5709 5708 5707 5707 5707 5706 5705 5704 5702 5701 5700 5699 5698 5697 5696 5695 5695 5693 5691 5690 5687 5688 5688 5689 5689 5690 5689 5689 5688 5687 5686 5685 5684 5683 5681 5680 5679 5678 5677 5675 5674
5710 5708 5707 5706 5705 5704 5704 5703 5701 5700 5698 5697 5696 5695 5693 5692 5691 5690 5689 5687 5686 5685 5683 5681 5681 5681 5681 5681 5680 5680 5679 5678 5677 5676 5675 5674 5673 5672 5671 5670 5669 5668 5667
5707 5706 5705 5703 5702 5701 5700 5699 5698 5696 5694 5693 5691 5690 5688 5687 5685 5683 5682 5681 5680 5679 5676 5674 5672 5671 5671 5670 5670 5669 5668 5667 5667 5666 5665 5663 5662 5661 5660 5659 5658 5658 5657
5704 5703 5702 5701 5699 5698 5696 5695 5693 5691 5688 5687 5685 5684 5682 5681 5679 5677 5675 5673 5672 5670 5667 5665 5662 5661 5660 5659 5658 5657 5657 5655 5654 5654 5652 5651 5650 5649 5648 5647 5646 5646 5645
5701 5700 5698 5697 5695 5694 5692 5690 5688 5685 5682 5679 5677 5676 5674 5673 5671 5670 5667 5664 5662 5660 5657 5655 5652 5649 5647 5646 5644 5643 5642 5642 5641 5639 5638 5638 5636 5635 5634 5633 5632 5631 5630
5695 5694 5693 5691 5689 5688 5686 5685 5682 5678 5674 5672 5668 5666 5664 5662 5661 5659 5657 5655 5652 5649 5646 5643 5639 5636 5633 5631 5629 5629 5627 5627 5627 5625 5623 5623 5621 5620 5618 5617 5616 5615 5614
5689 5687 5685 5683 5681 5679 5679 5677 5674 5670 5666 5662 5659 5657 5654 5651 5649 5647 5644 5642 5639 5636 5634 5630 5626 5622 5619 5617 5615 5614 5612 5610 5609 5608 5607 5609 5606 5604 5602 5601 5599 5598 5597
5682 5679 5677 5675 5672 5670 5668 5667 5664 5661 5656 5651 5648 5646 5643 5639 5637 5635 5632 5628 5623 5620 5618 5615 5611 5607 5605 5602 5600 5598 5596 5594 5593 5591 5589 5590 5590 5587 5585 5583 5581 5580 5579
5674 5671 5668 5665 5663 5659 5658 5656 5654 5650 5644 5639 5636 5633 5630 5627 5624 5622 5618 5614 5609 5604 5601 5598 5595 5591 5589 5587 5584 5583 5580 5579 5578 5575 5570 5569 5570 5569 5569 5566 5563 5561 5560
5666 5662 5657 5654 5652 5649 5647 5645 5643 5639 5633 5627 5623 5619 5617 5614 5610 5607 5603 5599 5593 5588 5585 5582 5578 5575 5572 5569 5566 5563 5560 5558 5556 5555 5552 5548 5548 5547 5550 5549 5544 5541 5540